Regional Weather Roundup
Issued by NWS Huntsville, AL

Home | Current Version | Previous Version | Text Only | Print | Product List | Glossary On
Versions: 1 2 3 4 5 6 7 8 9 10 11 12 13 14 15 16 17 18 19 20 21 22 23 24 25 26 27 28 29 30 31 32 33 34 35 36 37 38 39 40 41 42 43 44 45 46 47 48 49 50
000
ASUS44 KHUN 302310
RWRHUN

WEATHER ROUNDUP FOR THE TENNESSEE VALLEY
NATIONAL WEATHER SERVICE HUNTSVILLE AL
500 PM CST FRI JAN 30 2015

ALZ001>004-310000-
NORTHWEST ALABAMA

CITY           SKY/WX    TMP DP  RH WIND       PRES   REMARKS
COURTLAND HCN    N/A     45  32  59 N6          N/A
SHOALS AIRPORT CLEAR     47  21  35 N3        30.41R
SHOALS TVA RES   N/A     46 N/A N/A MISG        N/A
$$

ALZ005>007-016-310000-
NORTH CENTRAL ALABAMA

CITY           SKY/WX    TMP DP  RH WIND       PRES   REMARKS
CULLMAN AG STN   N/A     45 N/A N/A N6          N/A
DECATUR AP     CLEAR     44  21  40 N8        30.40R
HUNTSVILLE AP  PTCLDY    46  22  38 N6        30.39R
HUN NWS/UAH      N/A     44  16  33 N6          N/A
MERIDIANVILLE  CLEAR     43  16  33 NE7       30.38S
REDSTONE ARSN  CLEAR     43  20  40 N13       30.38R
$$

ALZ008>010-310000-
NORTHEAST ALABAMA

CITY           SKY/WX    TMP DP  RH WIND       PRES   REMARKS
ALBERTVILLE    CLEAR     43  28  56 NW8       30.34S
FORT PAYNE     CLEAR     43  14  31 N6        30.34R
SCOTTSBORO AP  CLEAR     45  18  33 N9        30.37S
VALLEY HEAD      N/A     43 N/A N/A MISG        N/A
$$

TNZ076-096-097-310000-
SOUTHEASTERN MIDDLE TENNESSEE

CITY           SKY/WX    TMP DP  RH WIND       PRES   REMARKS
TULLAHOMA      CLEAR     37  18  44 N7        30.39R WCI  32
WINCHESTER     CLEAR     39  21  48 N6        30.38S WCI  35
$$

...SURROUNDING SITES...

CITY           SKY/WX    TMP DP  RH WIND       PRES   REMARKS
ATLANTA        PTCLDY    46  19  34 NW17G23   30.29R
ANNISTON       CLEAR     48  20  32 N3        30.34S
BIRMINGHAM     PTCLDY    46  20  35 N7        30.38R
CHATTANOOGA    PTCLDY    44  20  38 N9        30.37R
CORINTH        FAIR      48  23  37 N6        30.40F
DALTON         CLEAR     41  23  48 N8        30.34S
GADSDEN        CLEAR     45  21  39 NW6       30.36R
GOLDEN TRNGL   CLEAR     52  27  37 N7        30.38S
HALEYVILLE       N/A     42  21  43 CALM      30.41R
JACKSON TN     CLEAR     45  21  38 N7        30.43S
LEWISBURG      FAIR      41  19  41 N7        30.40S
MEMPHIS        PTCLDY    47  21  35 NE7       30.42F
MURFREESBORO   FAIR      42  20  41 N6        30.41
NASHVILLE      PTCLDY    41  19  41 N8        30.43S
OXFORD MS      FAIR      46  21  36 N3        30.42S
ROME           CLEAR     46  20  35 N10       30.33S
SAVANNAH       CLEAR     43  18  36 N6        30.42S
TUPELO         CLEAR     47  23  38 NE8       30.40S
TUSCALOOSA     CLEAR     51  23  33 N9        30.37R
$$

...GULF COAST WEATHER...

CITY           SKY/WX    TMP DP  RH WIND       PRES   REMARKS
GULFPORT       MOCLDY    58  31  35 N6        30.30S
PASCAGOULA     MOCLDY    57  32  38 N5        30.30S
MOBILE         MOCLDY    56  30  37 N8        30.30S
GULF SHORES    PTCLDY    58  32  37 N7        30.28S
PENSACOLA      MOCLDY    59  30  33 N7        30.27S
DESTIN         CLOUDY    59  34  39 N6        30.26S
PANAMA CITY    MOCLDY    59  32  36 N7        30.26R
APPALACHICOLA  MOCLDY    62  34  35 N3        30.23R
$$



USA.gov is the U.S. government's official web portal to all federal, state and local government web resources and services.